Terminal Aerodrome Forecast
Issued by NWS Bismarck, ND

Home | Current Version | Previous Version | Graphics & Text | Print | Product List | Glossary On
Versions: 1 2 3 4 5 6 7 8 9 10 11 12 13 14 15 16 17 18 19 20 21 22
000
FTUS43 KBIS 132227 AAE
TAFBIS
TAF AMD
KBIS 132227Z 1322/1418 15009KT P6SM BKN021 OVC060
     FM140000 16007KT P6SM OVC018
     FM140600 23004KT P6SM SCT015 BKN035
     FM141200 28007KT P6SM BKN050
     FM141500 30012G17KT P6SM -SHSN SCT018 BKN035=

USA.gov is the U.S. government's official web portal to all federal, state and local government web resources and services.